This demonstration page uses our WeatherBlox Daily Observations layout. Learn more.

Left ArrowRight Arrow

Hourly Observations for September 1, 2018

Temp ( °F °C ) Dew Point ( °F °C ) Humidity (%) Winds ( mph kmh ) Pressure ( in mb ) Visibility ( mi km ) Precip ( " mm )
12:15 am 00:15 Cloudy 72 22 72 22 100 100 SSE 6 9 30.09 1019 10 16 N/A
12:16 am 00:16 Cloudy 72 22 72 22 100 100 SSE 7 11 30.09 1019 10 16 N/A
12:35 am 00:35 Cloudy 72 22 72 22 100 100 S 5 7 30.09 1019 10 16 N/A
12:55 am 00:55 Mostly Cloudy 72 22 72 22 100 100 SSW 5 7 30.09 1019 10 16 N/A
1:15 am 01:15 Clear 72 22 72 22 100 100 S 6 9 30.09 1019 10 16 N/A
1:16 am 01:16 Clear 72 22 72 22 100 100 S 6 9 30.09 1019 10 16 N/A
1:35 am 01:35 Clear 72 22 72 22 100 100 SSE 8 13 30.09 1019 10 16 N/A
1:55 am 01:55 Clear 72 22 72 22 100 100 S 7 11 30.09 1019 10 16 N/A
2:15 am 02:15 Clear 70 21 70 21 100 100 S 7 11 30.09 1019 10 16 N/A
2:35 am 02:35 Clear 70 21 70 21 100 100 S 7 11 30.09 1019 10 16 N/A
2:55 am 02:55 Clear 70 21 70 21 100 100 S 6 9 30.09 1019 10 16 N/A
3:16 am 03:16 Clear 70 21 70 21 100 100 S 5 7 30.09 1019 10 16 N/A
3:35 am 03:35 Clear 70 21 70 21 100 100 S 5 7 30.09 1019 10 16 N/A
3:55 am 03:55 Clear 70 21 70 21 100 100 SSW 6 9 30.09 1019 10 16 N/A
4:15 am 04:15 Clear 70 21 70 21 100 100 S 7 11 30.09 1019 10 16 N/A
4:35 am 04:35 Clear 68 20 68 20 100 100 SSW 6 9 30.09 1019 10 16 N/A
4:55 am 04:55 Clear 68 20 68 20 100 100 SSW 5 7 30.09 1019 10 16 N/A
4:56 am 04:56 Clear 68 20 68 20 100 100 S 5 7 30.09 1019 10 16 N/A
5:15 am 05:15 Clear 68 20 68 20 100 100 S 5 7 30.09 1019 10 16 N/A
5:35 am 05:35 Clear 68 20 68 20 100 100 S 3 6 30.09 1019 10 16 N/A
5:55 am 05:55 Clear 68 20 68 20 100 100 S 3 6 30.09 1019 10 16 N/A
5:56 am 05:56 Clear 68 20 68 20 100 100 S 3 6 30.09 1019 10 16 N/A
6:15 am 06:15 Partly Cloudy 68 20 68 20 100 100 N N/A 30.12 1020 10 16 N/A
6:35 am 06:35 Mostly Cloudy 68 20 68 20 100 100 N N/A 30.12 1020 10 16 N/A
6:55 am 06:55 Partly Cloudy 68 20 68 20 100 100 SE 3 6 30.12 1020 10 16 N/A
6:56 am 06:56 Partly Cloudy 68 20 68 20 100 100 SE 5 7 30.12 1020 10 16 N/A
7:15 am 07:15 Mostly Cloudy 68 20 68 20 100 100 SE 6 9 30.12 1020 10 16 N/A
7:35 am 07:35 Mostly Cloudy 68 20 68 20 100 100 SSE 6 9 30.12 1020 10 16 N/A
7:55 am 07:55 Sunny 68 20 68 20 100 100 SE 7 11 30.12 1020 10 16 N/A
7:56 am 07:56 Sunny 68 20 68 20 100 100 SSE 6 9 30.12 1020 10 16 N/A
8:15 am 08:15 Sunny 68 20 68 20 100 100 SSE 6 9 30.12 1020 10 16 N/A
8:35 am 08:35 Sunny 70 21 70 21 100 100 SSE 5 7 30.12 1020 10 16 N/A
8:56 am 08:56 Sunny 72 22 72 22 100 100 S 8 13 30.15 1021 10 16 N/A
9:15 am 09:15 Mostly Cloudy 72 22 72 22 100 100 S 5 7 30.15 1021 10 16 N/A
9:36 am 09:36 Partly Cloudy 72 22 72 22 100 100 S 7 11 30.15 1021 10 16 N/A
9:55 am 09:55 Sunny 72 22 72 22 100 100 S 7 11 30.15 1021 10 16 N/A
10:15 am 10:15 Sunny 75 24 73 23 94 94 S 10 17 30.12 1020 10 16 N/A
10:35 am 10:35 Sunny 75 24 73 23 94 94 S 8 13 30.12 1020 10 16 N/A
10:36 am 10:36 Sunny 75 24 73 23 94 94 S 8 13 30.12 1020 10 16 N/A
10:55 am 10:55 Partly Cloudy 77 25 75 24 94 94 SSW 9 15 30.12 1020 10 16 N/A
11:15 am 11:15 Partly Cloudy 79 26 75 24 89 89 SSW 7 11 30.12 1020 10 16 N/A
11:36 am 11:36 Partly Cloudy 81 27 77 25 89 89 S 9 15 30.12 1020 10 16 N/A
11:55 am 11:55 Partly Cloudy 81 27 75 24 84 84 SSW 12 19 30.12 1020 10 16 N/A
12:15 pm 12:15 Partly Cloudy 82 28 77 25 84 84 WSW 9 15 30.12 1020 10 16 N/A
12:35 pm 12:35 Mostly Cloudy 82 28 77 25 84 84 SW 9 15 30.12 1020 10 16 N/A
12:36 pm 12:36 Mostly Cloudy 82 28 77 25 84 84 SW 7 11 30.12 1020 10 16 N/A
12:55 pm 12:55 Mostly Cloudy 82 28 75 24 79 79 WSW 9 15 30.12 1020 10 16 N/A
1:15 pm 13:15 Mostly Cloudy 81 27 75 24 84 84 SSW 10 17 30.12 1020 10 16 N/A
1:35 pm 13:35 Partly Cloudy 81 27 77 25 89 89 SSW 3 6 30.12 1020 10 16 N/A
1:55 pm 13:55 Mostly Cloudy 79 26 75 24 89 89 N 5 7 30.09 1019 10 16 N/A
2:15 pm 14:15 Cloudy 75 24 75 24 100 100 ENE 10 17 30.09 1019 4 6 N/A
2:16 pm 14:16 Cloudy 75 24 75 24 100 100 ENE 10 17 30.09 1019 4 6 N/A
2:35 pm 14:35 Mostly Cloudy 75 24 75 24 100 100 S 9 15 30.12 1020 10 16 N/A
2:55 pm 14:55 Partly Cloudy 73 23 73 23 100 100 SSE 7 11 30.12 1020 10 16 N/A
2:56 pm 14:56 Partly Cloudy 73 23 73 23 100 100 SSE 8 13 30.12 1020 10 16 N/A
3:15 pm 15:15 Sunny 73 23 73 23 100 100 S 6 9 30.12 1020 10 16 N/A
3:35 pm 15:35 Sunny 77 25 77 25 100 100 S 8 13 30.09 1019 10 16 N/A
3:55 pm 15:55 Sunny 79 26 77 25 94 94 S 10 17 30.09 1019 10 16 N/A
3:56 pm 15:56 Sunny 79 26 77 25 94 94 S 12 19 30.09 1019 10 16 N/A
4:15 pm 16:15 Sunny 77 25 73 23 89 89 SSW 9 15 30.09 1019 10 16 N/A
4:35 pm 16:35 Sunny 75 24 73 23 94 94 S 8 13 30.09 1019 10 16 N/A
4:55 pm 16:55 Sunny 75 24 73 23 94 94 S 7 11 30.06 1018 10 16 N/A
4:56 pm 16:56 Sunny 75 24 73 23 94 94 S 7 11 30.06 1018 10 16 N/A
5:15 pm 17:15 Sunny 75 24 73 23 94 94 S 8 13 30.06 1018 10 16 N/A
5:35 pm 17:35 Sunny 79 26 75 24 89 89 S 8 13 30.06 1018 10 16 N/A
5:55 pm 17:55 Sunny 79 26 75 24 89 89 S 13 20 30.03 1017 10 16 N/A
6:15 pm 18:15 Sunny 81 27 75 24 84 84 S 9 15 30.03 1017 10 16 N/A
6:36 pm 18:36 Sunny 79 26 75 24 89 89 SSE 8 13 30.03 1017 10 16 N/A
6:55 pm 18:55 Sunny 79 26 75 24 89 89 S 7 11 30.03 1017 10 16 N/A
7:15 pm 19:15 Sunny 77 25 75 24 94 94 S 7 11 30.03 1017 10 16 N/A
7:35 pm 19:35 Sunny 77 25 75 24 94 94 SSW 3 6 30.03 1017 10 16 N/A
7:36 pm 19:36 Sunny 77 25 75 24 94 94 S 3 6 30.03 1017 10 16 N/A
7:55 pm 19:55 Sunny 77 25 77 25 100 100 N N/A 30.06 1018 10 16 N/A
8:15 pm 20:15 Sunny 75 24 75 24 100 100 N N/A 30.06 1018 10 16 N/A
8:36 pm 20:36 Clear 73 23 73 23 100 100 ESE 3 6 30.06 1018 10 16 N/A
8:55 pm 20:55 Clear 72 22 72 22 100 100 SE 5 7 30.06 1018 10 16 N/A
9:15 pm 21:15 Clear 73 23 73 23 100 100 SE 5 7 30.06 1018 10 16 N/A
9:35 pm 21:35 Clear 73 23 73 23 100 100 SSE 5 7 30.06 1018 10 16 N/A
9:55 pm 21:55 Clear 72 22 72 22 100 100 SSE 3 6 30.06 1018 10 16 N/A
10:16 pm 22:16 Clear 73 23 73 23 100 100 SSE 3 6 30.06 1018 10 16 N/A
10:35 pm 22:35 Clear 73 23 73 23 100 100 SSE 5 7 30.06 1018 10 16 N/A
10:55 pm 22:55 Clear 73 23 73 23 100 100 SSE 3 6 30.09 1019 10 16 N/A
11:15 pm 23:15 Clear 72 22 72 22 100 100 SSE 5 7 30.09 1019 10 16 N/A
11:16 pm 23:16 Clear 72 22 72 22 100 100 SSE 5 7 30.09 1019 10 16 N/A
11:35 pm 23:35 Clear 72 22 72 22 100 100 SSE 7 11 30.09 1019 10 16 N/A
11:55 pm 23:55 Clear 72 22 72 22 100 100 SSE 5 7 30.09 1019 10 16 N/A

Powered by AerisWeather